Time,TemperatureF,DewpointF,PressureIn,WindDirection,WindDirectionDegrees,WindSpeedMPH,WindSpeedGustMPH,Humidity,HourlyPrecipIn,Conditions,Clouds,dailyrainin,SoftwareType,DateUTC
2013-02-13 00:14:00,22.7,20.0,29.95,West,281,0.0,0.0,90,0.00,,,0.00,weatherlink.com 1.10,2013-02-13 06:14:00,
2013-02-13 00:30:00,22.4,20.0,29.94,West,281,0.0,0.0,90,0.00,,,0.00,weatherlink.com 1.10,2013-02-13 06:30:00,
2013-02-13 00:44:00,22.1,20.0,29.94,WSW,237,0.0,2.0,90,0.00,,,0.00,weatherlink.com 1.10,2013-02-13 06:44:00,
2013-02-13 01:00:00,22.5,20.0,29.94,SSW,200,0.0,1.0,91,0.00,,,0.00,weatherlink.com 1.10,2013-02-13 07:00:00,
2013-02-13 01:14:00,23.0,21.0,29.94,SSW,200,0.0,0.0,91,0.00,,,0.00,weatherlink.com 1.10,2013-02-13 07:14:00,
2013-02-13 01:29:00,23.1,21.0,29.93,SSW,200,0.0,1.0,91,0.00,,,0.00,weatherlink.com 1.10,2013-02-13 07:29:00,
2013-02-13 01:45:00,23.4,21.0,29.93,SSW,200,0.0,0.0,91,0.00,,,0.00,weatherlink.com 1.10,2013-02-13 07:45:00,
2013-02-13 02:00:00,23.7,22.0,29.93,SSW,200,0.0,0.0,91,0.00,,,0.00,weatherlink.com 1.10,2013-02-13 08:00:00,
2013-02-13 02:15:00,24.0,22.0,29.92,SSW,200,0.0,0.0,92,0.00,,,0.00,weatherlink.com 1.10,2013-02-13 08:15:00,
2013-02-13 02:30:00,24.2,22.0,29.91,SSW,200,0.0,0.0,92,0.00,,,0.00,weatherlink.com 1.10,2013-02-13 08:30:00,
2013-02-13 02:45:00,24.1,22.0,29.90,SSW,200,0.0,0.0,91,0.00,,,0.00,weatherlink.com 1.10,2013-02-13 08:45:00,
2013-02-13 03:00:00,24.0,22.0,29.90,SSW,200,0.0,0.0,91,0.00,,,0.00,weatherlink.com 1.10,2013-02-13 09:00:00,
2013-02-13 03:15:00,23.5,21.0,29.90,SSW,200,0.0,0.0,91,0.00,,,0.00,weatherlink.com 1.10,2013-02-13 09:15:00,
2013-02-13 03:30:00,23.3,21.0,29.90,SSW,200,0.0,0.0,91,0.00,,,0.00,weatherlink.com 1.10,2013-02-13 09:30:00,
2013-02-13 03:45:00,23.1,21.0,29.89,SSW,200,0.0,0.0,91,0.00,,,0.00,weatherlink.com 1.10,2013-02-13 09:45:00,
2013-02-13 04:00:00,22.9,21.0,29.89,SSW,200,0.0,0.0,91,0.00,,,0.00,weatherlink.com 1.10,2013-02-13 10:00:00,
2013-02-13 04:15:00,22.9,21.0,29.88,SSW,200,0.0,0.0,91,0.00,,,0.00,weatherlink.com 1.10,2013-02-13 10:15:00,
2013-02-13 04:30:00,22.9,21.0,29.87,SSW,200,0.0,0.0,91,0.00,,,0.00,weatherlink.com 1.10,2013-02-13 10:30:00,
2013-02-13 04:45:00,23.2,21.0,29.87,SSW,200,0.0,0.0,92,0.00,,,0.00,weatherlink.com 1.10,2013-02-13 10:45:00,
2013-02-13 05:00:00,23.3,21.0,29.86,SSW,200,0.0,0.0,92,0.00,,,0.00,weatherlink.com 1.10,2013-02-13 11:00:00,
2013-02-13 05:15:00,23.1,21.0,29.86,SSW,200,0.0,0.0,91,0.00,,,0.00,weatherlink.com 1.10,2013-02-13 11:15:00,
2013-02-13 05:30:00,23.2,21.0,29.85,SSW,200,0.0,0.0,92,0.00,,,0.00,weatherlink.com 1.10,2013-02-13 11:30:00,
2013-02-13 05:45:00,23.2,21.0,29.85,SSW,200,0.0,0.0,92,0.00,,,0.00,weatherlink.com 1.10,2013-02-13 11:45:00,
2013-02-13 06:00:00,23.3,21.0,29.84,SSW,200,0.0,0.0,92,0.00,,,0.00,weatherlink.com 1.10,2013-02-13 12:00:00,
2013-02-13 06:15:00,23.6,22.0,29.85,SSW,196,2.0,3.0,92,0.00,,,0.00,weatherlink.com 1.10,2013-02-13 12:15:00,
2013-02-13 06:30:00,23.4,21.0,29.84,SSW,197,1.0,1.0,91,0.00,,,0.00,weatherlink.com 1.10,2013-02-13 12:30:00,
2013-02-13 06:45:00,23.0,21.0,29.84,SSW,198,0.0,1.0,91,0.00,,,0.00,weatherlink.com 1.10,2013-02-13 12:45:00,
2013-02-13 07:00:00,23.3,21.0,29.84,SSW,198,2.0,2.0,92,0.00,,,0.00,weatherlink.com 1.10,2013-02-13 13:00:00,
2013-02-13 07:15:00,23.8,22.0,29.84,SSW,198,2.0,3.0,92,0.00,,,0.00,weatherlink.com 1.10,2013-02-13 13:15:00,
2013-02-13 07:30:00,25.6,24.0,29.84,South,190,2.0,4.0,92,0.00,,,0.00,weatherlink.com 1.10,2013-02-13 13:30:00,
2013-02-13 07:45:00,26.9,25.0,29.84,SSW,193,3.0,6.0,92,0.00,,,0.00,weatherlink.com 1.10,2013-02-13 13:45:00,
2013-02-13 08:00:00,28.4,26.0,29.84,SSW,196,3.0,7.0,92,0.00,,,0.00,weatherlink.com 1.10,2013-02-13 14:00:00,
2013-02-13 08:15:00,29.5,27.0,29.84,SSW,199,6.0,7.0,91,0.00,,,0.00,weatherlink.com 1.10,2013-02-13 14:15:00,
2013-02-13 08:30:00,30.6,28.0,29.84,SW,218,6.0,7.0,90,0.00,,,0.00,weatherlink.com 1.10,2013-02-13 14:30:00,
2013-02-13 08:46:00,31.7,29.0,29.84,SSW,192,4.0,8.0,89,0.00,,,0.00,weatherlink.com 1.10,2013-02-13 14:46:00,
2013-02-13 09:00:00,32.9,30.0,29.84,SSW,213,5.0,8.0,88,0.00,,,0.00,weatherlink.com 1.10,2013-02-13 15:00:00,
2013-02-13 09:15:00,33.9,30.0,29.84,SSW,198,7.0,8.0,86,0.00,,,0.00,weatherlink.com 1.10,2013-02-13 15:15:00,
2013-02-13 09:31:00,35.2,31.0,29.84,SSW,197,7.0,9.0,84,0.00,,,0.00,weatherlink.com 1.10,2013-02-13 15:31:00,
2013-02-13 09:46:00,36.0,31.0,29.84,SSW,202,7.0,12.0,82,0.00,,,0.00,weatherlink.com 1.10,2013-02-13 15:46:00,
2013-02-13 10:01:00,36.9,32.0,29.84,SSW,205,8.0,13.0,81,0.00,,,0.00,weatherlink.com 1.10,2013-02-13 16:01:00,
2013-02-13 10:16:00,37.3,32.0,29.84,SW,223,7.0,14.0,80,0.00,,,0.00,weatherlink.com 1.10,2013-02-13 16:16:00,
2013-02-13 10:31:00,37.8,32.0,29.84,SSW,196,11.0,14.0,79,0.00,,,0.00,weatherlink.com 1.10,2013-02-13 16:31:00,
2013-02-13 10:46:00,38.4,33.0,29.83,SW,229,8.0,12.0,80,0.00,,,0.00,weatherlink.com 1.10,2013-02-13 16:46:00,
2013-02-13 11:01:00,38.9,33.0,29.82,WSW,243,7.0,13.0,79,0.00,,,0.00,weatherlink.com 1.10,2013-02-13 17:01:00,
2013-02-13 11:16:00,39.9,32.0,29.82,WSW,237,9.0,13.0,74,0.00,,,0.00,weatherlink.com 1.10,2013-02-13 17:16:00,
2013-02-13 11:31:00,40.9,33.0,29.81,WSW,237,9.0,12.0,73,0.00,,,0.00,weatherlink.com 1.10,2013-02-13 17:31:00,
2013-02-13 11:46:00,41.6,33.0,29.80,SSW,211,8.0,10.0,71,0.00,,,0.00,weatherlink.com 1.10,2013-02-13 17:46:00,
2013-02-13 12:01:00,42.1,32.0,29.79,SW,220,8.0,14.0,68,0.00,,,0.00,weatherlink.com 1.10,2013-02-13 18:01:00,
2013-02-13 12:16:00,42.8,34.0,29.78,SW,224,11.0,14.0,70,0.00,,,0.00,weatherlink.com 1.10,2013-02-13 18:16:00,
2013-02-13 12:31:00,43.4,34.0,29.78,SW,222,8.0,15.0,70,0.00,,,0.00,weatherlink.com 1.10,2013-02-13 18:31:00,
2013-02-13 12:46:00,44.3,34.0,29.77,SW,235,9.0,14.0,67,0.00,,,0.00,weatherlink.com 1.10,2013-02-13 18:46:00,
2013-02-13 13:01:00,44.7,34.0,29.77,WSW,242,9.0,12.0,67,0.00,,,0.00,weatherlink.com 1.10,2013-02-13 19:01:00,
2013-02-13 13:16:00,45.1,34.0,29.76,WSW,243,11.0,15.0,65,0.00,,,0.00,weatherlink.com 1.10,2013-02-13 19:16:00,
2013-02-13 13:31:00,45.2,34.0,29.75,WSW,241,11.0,15.0,65,0.00,,,0.00,weatherlink.com 1.10,2013-02-13 19:31:00,
2013-02-13 13:46:00,45.5,34.0,29.75,WSW,250,11.0,16.0,65,0.00,,,0.00,weatherlink.com 1.10,2013-02-13 19:46:00,
2013-02-13 14:01:00,45.6,35.0,29.75,SW,233,9.0,17.0,66,0.00,,,0.00,weatherlink.com 1.10,2013-02-13 20:01:00,
2013-02-13 14:16:00,45.8,34.0,29.74,West,260,10.0,15.0,64,0.00,,,0.00,weatherlink.com 1.10,2013-02-13 20:16:00,
2013-02-13 14:31:00,46.3,35.0,29.74,WSW,253,10.0,14.0,64,0.00,,,0.00,weatherlink.com 1.10,2013-02-13 20:31:00,
2013-02-13 14:47:00,45.5,34.0,29.75,WSW,241,12.0,20.0,64,0.00,,,0.00,weatherlink.com 1.10,2013-02-13 20:47:00,
2013-02-13 15:02:00,45.7,35.0,29.75,WSW,248,13.0,15.0,67,0.00,,,0.00,weatherlink.com 1.10,2013-02-13 21:02:00,
2013-02-13 15:17:00,45.7,35.0,29.75,WSW,242,12.0,17.0,67,0.00,,,0.00,weatherlink.com 1.10,2013-02-13 21:17:00,
2013-02-13 15:32:00,45.4,35.0,29.75,WSW,239,12.0,18.0,66,0.00,,,0.00,weatherlink.com 1.10,2013-02-13 21:32:00,
2013-02-13 15:47:00,45.2,34.0,29.75,WSW,244,10.0,16.0,66,0.00,,,0.00,weatherlink.com 1.10,2013-02-13 21:47:00,
2013-02-13 16:02:00,45.5,35.0,29.75,WSW,244,10.0,14.0,67,0.00,,,0.00,weatherlink.com 1.10,2013-02-13 22:02:00,
2013-02-13 16:17:00,44.8,34.0,29.75,WSW,254,13.0,17.0,67,0.00,,,0.00,weatherlink.com 1.10,2013-02-13 22:17:00,
2013-02-13 16:32:00,43.8,35.0,29.75,West,263,7.0,12.0,70,0.00,,,0.00,weatherlink.com 1.10,2013-02-13 22:32:00,
2013-02-13 16:47:00,43.4,33.0,29.75,West,259,5.0,11.0,68,0.00,,,0.00,weatherlink.com 1.10,2013-02-13 22:47:00,
2013-02-13 17:02:00,42.7,33.0,29.76,West,261,2.0,8.0,69,0.00,,,0.00,weatherlink.com 1.10,2013-02-13 23:02:00,
2013-02-13 17:17:00,41.7,33.0,29.77,West,267,3.0,7.0,71,0.00,,,0.00,weatherlink.com 1.10,2013-02-13 23:17:00,
2013-02-13 17:32:00,40.1,32.0,29.77,West,259,3.0,7.0,73,0.00,,,0.00,weatherlink.com 1.10,2013-02-13 23:32:00,
2013-02-13 17:48:00,39.0,32.0,29.77,WSW,252,2.0,5.0,76,0.00,,,0.00,weatherlink.com 1.10,2013-02-13 23:48:00,
2013-02-13 18:02:00,38.3,32.0,29.78,WSW,256,2.0,5.0,77,0.00,,,0.00,weatherlink.com 1.10,2013-02-14 00:02:00,
2013-02-13 18:17:00,36.7,31.0,29.78,WSW,257,1.0,3.0,79,0.00,,,0.00,weatherlink.com 1.10,2013-02-14 00:17:00,
2013-02-13 18:32:00,36.0,30.0,29.78,West,261,1.0,2.0,80,0.00,,,0.00,weatherlink.com 1.10,2013-02-14 00:32:00,
2013-02-13 18:47:00,35.7,30.0,29.78,WSW,257,2.0,4.0,81,0.00,,,0.00,weatherlink.com 1.10,2013-02-14 00:47:00,
2013-02-13 19:02:00,35.7,30.0,29.78,West,264,2.0,3.0,81,0.00,,,0.00,weatherlink.com 1.10,2013-02-14 01:02:00,
2013-02-13 19:17:00,35.0,30.0,29.79,West,261,1.0,3.0,82,0.00,,,0.00,weatherlink.com 1.10,2013-02-14 01:17:00,
2013-02-13 19:32:00,34.6,30.0,29.78,West,262,2.0,3.0,83,0.00,,,0.00,weatherlink.com 1.10,2013-02-14 01:32:00,
2013-02-13 19:47:00,34.3,30.0,29.79,West,262,1.0,3.0,84,0.00,,,0.00,weatherlink.com 1.10,2013-02-14 01:47:00,
2013-02-13 20:02:00,34.0,30.0,29.79,West,261,1.0,3.0,85,0.00,,,0.00,weatherlink.com 1.10,2013-02-14 02:02:00,
2013-02-13 20:17:00,33.5,30.0,29.79,West,261,0.0,3.0,85,0.00,,,0.00,weatherlink.com 1.10,2013-02-14 02:17:00,
2013-02-13 20:34:00,33.4,30.0,29.79,West,262,2.0,3.0,87,0.00,,,0.00,weatherlink.com 1.10,2013-02-14 02:34:00,
2013-02-13 20:47:00,33.6,30.0,29.79,West,262,0.0,2.0,87,0.00,,,0.00,weatherlink.com 1.10,2013-02-14 02:47:00,
2013-02-13 21:02:00,33.6,30.0,29.79,West,262,0.0,1.0,88,0.00,,,0.00,weatherlink.com 1.10,2013-02-14 03:02:00,
2013-02-13 21:17:00,33.3,30.0,29.79,West,262,1.0,1.0,88,0.00,,,0.00,weatherlink.com 1.10,2013-02-14 03:17:00,
2013-02-13 21:32:00,33.2,30.0,29.79,West,262,2.0,3.0,88,0.00,,,0.00,weatherlink.com 1.10,2013-02-14 03:32:00,
2013-02-13 21:47:00,32.9,30.0,29.79,West,261,0.0,2.0,88,0.00,,,0.00,weatherlink.com 1.10,2013-02-14 03:47:00,
2013-02-13 22:02:00,32.4,29.0,29.79,West,261,1.0,2.0,88,0.00,,,0.00,weatherlink.com 1.10,2013-02-14 04:02:00,
2013-02-13 22:17:00,32.0,29.0,29.79,West,262,1.0,1.0,89,0.00,,,0.00,weatherlink.com 1.10,2013-02-14 04:17:00,
2013-02-13 23:02:00,31.1,29.0,29.79,West,263,2.0,2.0,90,0.00,,,0.00,weatherlink.com 1.10,2013-02-14 05:02:00,
2013-02-13 23:19:00,31.1,29.0,29.79,West,263,0.0,2.0,90,0.00,,,0.00,weatherlink.com 1.10,2013-02-14 05:19:00,
2013-02-13 23:32:00,30.9,28.0,29.78,West,262,1.0,3.0,90,0.00,,,0.00,weatherlink.com 1.10,2013-02-14 05:32:00,
2013-02-13 23:47:00,30.9,28.0,29.78,West,262,0.0,1.0,90,0.00,,,0.00,weatherlink.com 1.10,2013-02-14 05:47:00,